Theta_e
354 352 350 348 347 346 342 337 315 323 321 312 313 317 314 328 329 324 322 327 323 330 336 336 335 333 327 323 326 330 330 320 320 310 305 328 346 349 351 353 354 354 354 356 357 356 356 358 358 357 357 359 362 364 365 364 365 365 365 365 365 365 365 365 365 365 365 363 364 363 364 363 362 363 363 363 363 363 364 363 362 363 362 362 362 362 363 363 363 364 363 363 363 364 364 362 362
351 350 349 348 349 344 331 338 319 317 317 315 315 321 320 327 326 321 321 324 326 328 336 335 336 336 335 333 333 331 328 333 335 331 337 344 348 349 353 354 354 353 355 356 357 352 356 359 359 359 358 360 363 364 364 365 365 365 365 365 365 365 365 365 365 364 364 363 364 362 363 363 362 362 363 363 362 362 362 362 362 362 363 363 363 362 363 363 364 364 363 364 364 363 363 362 361
347 347 345 351 350 342 337 335 313 312 311 309 315 319 326 321 321 323 327 329 333 334 337 336 337 336 334 332 326 327 319 337 336 338 338 347 342 346 353 355 355 355 356 356 357 357 357 360 363 361 361 363 364 364 364 365 365 364 364 365 365 365 364 364 364 364 364 363 362 362 363 363 363 362 362 361 362 362 362 362 362 362 362 362 361 361 363 364 364 363 363 362 362 362 362 363 362
347 345 342 348 334 342 326 324 317 314 311 314 314 322 324 321 324 328 331 333 335 335 336 334 332 336 331 325 328 333 331 331 338 338 337 341 343 351 353 355 357 357 357 357 357 358 358 361 364 364 363 363 364 363 365 365 364 363 364 364 364 364 364 364 364 363 363 363 362 362 361 362 362 362 361 362 362 362 362 362 361 362 361 361 362 362 363 362 363 362 362 362 361 362 362 362 363
351 356 351 344 335 324 325 321 320 317 310 315 313 321 323 325 326 329 330 334 334 335 336 335 329 336 336 331 335 325 328 338 339 343 340 346 352 353 354 356 356 356 355 356 357 357 358 363 363 363 363 364 364 364 365 365 364 364 364 364 363 363 363 363 363 363 363 363 362 362 361 362 362 362 362 362 361 360 361 361 361 361 362 361 362 362 362 362 364 362 362 362 362 362 362 362 361
352 354 355 347 330 341 331 320 316 316 320 325 317 319 325 328 328 329 330 333 334 336 337 332 328 329 329 332 336 331 337 328 340 342 344 346 352 355 355 356 355 354 354 355 356 357 358 363 363 363 363 364 365 365 365 364 364 363 363 363 363 363 363 363 362 361 363 363 362 362 361 361 361 362 362 361 361 360 362 361 361 361 361 361 361 361 361 360 362 361 362 362 362 362 363 363 362
342 346 344 343 339 338 319 317 316 318 322 328 322 323 326 329 331 329 328 330 332 333 337 330 333 331 326 333 337 341 344 344 340 342 348 350 354 355 355 354 353 352 353 354 356 357 359 362 363 364 365 364 365 365 364 363 363 363 363 363 363 363 363 362 362 361 360 361 361 362 361 361 361 361 360 360 361 361 362 361 361 360 360 361 361 361 361 361 361 361 362 361 362 363 363 363 364
354 338 337 328 324 326 316 319 319 321 322 328 329 326 329 330 332 330 328 328 326 326 330 332 334 328 327 338 327 341 345 346 346 350 351 352 353 353 353 352 351 351 353 354 355 357 362 363 363 364 364 364 364 364 363 363 362 362 363 363 363 362 362 362 362 361 360 361 361 362 362 361 361 361 361 361 361 361 360 360 360 359 359 361 361 361 359 359 361 361 361 363 363 362 361 362 362
349 343 345 330 319 323 318 318 318 326 325 329 328 332 334 334 332 330 329 333 330 332 330 330 330 323 327 331 331 339 342 347 349 352 351 352 351 352 352 351 350 351 353 354 355 358 359 362 364 363 363 364 363 362 362 362 362 362 363 362 362 362 362 362 362 361 360 361 361 362 361 361 361 361 361 361 361 362 360 360 360 360 360 360 360 360 361 361 361 361 362 364 362 362 362 362 362
342 341 327 326 323 315 318 318 318 322 325 329 328 328 331 334 331 332 329 328 329 330 331 335 333 327 332 327 332 337 340 348 349 348 350 351 351 351 351 351 352 351 352 353 356 357 358 364 364 364 364 363 363 362 362 362 362 362 362 362 362 362 362 362 362 362 361 362 362 362 362 361 361 361 361 360 361 361 361 360 361 360 360 360 359 360 361 361 360 361 362 363 362 362 362 362 361
330 340 340 323 315 312 314 316 319 324 326 330 330 333 334 335 334 330 332 330 333 330 332 334 329 329 330 330 332 344 346 347 346 344 349 350 351 351 351 352 353 353 352 354 356 357 359 360 365 364 364 362 362 362 362 361 361 362 362 362 362 361 361 360 361 362 362 361 361 362 360 362 362 361 361 361 361 362 361 361 361 362 360 360 360 361 361 361 361 362 361 362 362 361 361 361 361
326 328 331 317 313 310 317 318 320 322 327 329 327 333 336 334 335 331 329 327 330 330 329 333 327 334 328 329 332 341 345 345 345 347 349 351 350 351 352 352 353 353 354 355 357 357 358 360 360 362 363 363 362 362 362 362 362 362 362 362 361 361 362 360 361 360 362 362 361 361 361 361 361 362 361 361 361 361 361 360 360 360 359 360 360 360 361 360 361 361 361 362 362 361 360 361 361
328 331 324 319 318 319 321 318 319 323 323 326 326 333 338 334 330 332 331 330 330 328 328 336 335 334 325 328 337 341 341 344 346 348 350 350 350 351 351 352 353 354 355 357 356 357 359 359 360 360 360 363 363 362 362 362 362 362 361 361 361 361 362 360 360 361 361 361 361 361 361 361 361 362 362 361 361 360 361 361 361 361 361 360 361 360 360 361 361 360 361 361 362 361 361 361 362
331 332 327 316 325 320 319 320 322 318 319 327 332 335 336 331 332 335 332 327 328 328 335 338 337 334 329 332 334 336 340 345 348 349 349 349 349 350 351 352 353 353 355 356 357 358 359 360 359 358 358 357 357 361 361 361 361 361 360 359 360 359 361 362 362 362 361 360 362 362 361 361 361 362 362 361 360 360 360 359 361 361 360 361 361 361 361 361 361 361 362 362 361 361 361 361 362
332 337 328 321 319 322 323 318 320 320 320 329 333 332 335 338 338 335 333 327 330 337 339 342 338 331 324 328 328 335 340 346 348 349 348 347 348 349 350 351 352 353 355 358 359 358 358 358 356 356 357 355 354 354 354 358 361 360 357 358 357 358 360 361 361 361 361 361 361 359 360 359 361 361 362 361 361 362 361 360 360 360 361 359 360 361 360 360 362 362 361 361 362 362 361 361 361
344 338 328 318 317 320 321 322 324 320 321 332 334 337 334 335 339 334 336 342 333 341 339 331 339 333 332 331 333 339 344 347 348 347 346 345 346 348 349 351 352 354 356 357 357 357 356 354 354 354 354 354 354 354 354 355 359 357 354 359 359 360 360 362 361 361 360 360 360 360 360 360 359 359 361 359 360 362 361 359 360 359 360 360 361 360 360 360 361 361 361 362 362 361 361 362 361
348 337 318 317 317 321 322 323 322 316 327 331 336 335 329 330 338 340 346 345 332 333 338 336 335 339 334 335 340 344 346 348 348 346 344 342 343 345 348 349 352 353 355 355 355 355 354 353 353 353 354 354 355 355 355 354 354 356 360 360 359 360 359 361 360 361 359 359 360 361 360 354 355 356 357 356 358 359 360 360 361 361 362 361 361 361 361 361 362 362 362 362 362 361 360 360 359
338 324 319 315 320 322 328 325 325 329 326 330 333 334 331 328 332 339 344 336 335 334 333 336 338 338 340 342 344 346 347 346 345 342 340 340 342 343 345 347 349 348 350 351 353 353 352 352 352 353 353 353 354 356 357 354 355 355 355 357 357 357 357 359 359 358 360 357 359 358 356 357 354 356 358 360 359 359 359 361 360 362 361 361 361 361 361 361 362 363 362 361 362 361 363 356 359
329 323 320 316 324 329 335 333 332 329 328 332 334 338 333 330 333 337 331 329 330 329 331 334 333 337 341 342 343 344 345 345 343 341 339 339 341 341 342 345 346 348 348 350 351 352 351 351 352 353 352 353 355 354 356 356 353 353 353 355 357 357 358 358 357 357 354 355 356 356 357 355 355 355 356 359 360 360 359 359 359 361 360 360 361 362 362 363 363 363 362 359 359 362 356 353 354
335 324 318 321 332 333 334 335 333 338 334 332 334 336 336 334 336 338 330 328 329 326 327 330 331 332 336 339 342 343 344 343 343 340 339 340 342 342 342 344 345 346 348 349 350 352 351 351 351 352 352 352 353 353 355 354 353 353 353 353 353 354 355 355 354 353 353 353 354 354 353 354 353 352 359 362 362 355 357 359 359 359 360 361 361 362 360 362 363 362 362 364 362 359 353 352 353
333 328 321 324 331 329 334 338 338 337 337 334 334 336 332 334 337 338 331 326 326 328 331 331 330 333 336 339 340 342 342 342 341 340 339 340 342 343 344 345 345 347 349 351 351 350 351 351 351 352 353 353 353 354 354 352 353 353 353 352 352 352 353 352 352 352 352 352 353 354 353 354 353 353 353 353 353 354 353 353 353 352 353 356 361 352 354 356 356 354 354 357 352 354 351 351 352
332 327 331 332 331 331 337 339 338 337 339 336 334 330 330 338 338 336 331 324 323 328 332 334 335 336 337 338 340 342 341 340 340 339 339 340 340 341 344 345 347 350 351 349 349 350 351 352 352 352 354 353 354 353 352 354 353 351 351 351 351 352 352 352 352 352 351 351 352 355 355 352 352 351 351 351 351 352 351 351 350 350 350 351 355 350 351 352 352 352 353 354 353 352 350 350 352
321 327 330 331 332 333 339 337 336 337 335 334 333 333 335 333 333 337 338 329 332 336 336 336 338 339 341 342 341 340 340 339 339 338 338 339 340 341 343 345 347 347 349 349 350 350 351 353 353 354 353 353 354 354 354 354 351 352 352 352 350 349 351 351 350 350 350 351 353 355 352 350 349 349 350 349 349 350 350 350 350 350 350 350 352 349 350 351 351 352 350 350 350 351 352 351 350
329 323 330 332 332 335 338 338 337 336 336 332 338 336 332 332 327 337 334 337 341 339 337 337 339 341 342 340 341 340 340 339 339 339 339 340 340 341 344 345 348 349 349 348 349 350 352 353 353 354 353 353 353 354 354 352 351 353 354 355 352 355 352 350 351 352 352 351 354 355 356 350 349 349 349 349 348 350 351 351 352 351 350 350 353 352 349 348 349 349 350 350 350 351 352 351 351
327 325 330 330 332 337 339 338 337 336 337 340 338 333 332 333 331 335 334 338 337 335 337 338 339 340 341 340 340 340 339 339 339 339 340 340 342 344 346 347 349 348 347 348 349 350 352 354 354 354 354 354 354 355 354 352 352 353 355 353 350 358 350 351 352 353 351 354 353 354 355 349 349 350 348 347 347 347 348 350 350 350 349 349 350 349 349 348 349 349 351 349 348 347 346 348 350
329 330 330 332 333 335 337 336 336 336 337 339 335 331 334 334 338 333 336 339 336 336 336 337 338 338 338 339 339 338 338 338 339 339 339 340 343 344 346 347 348 347 348 348 349 351 353 354 354 354 354 353 355 355 353 353 352 353 353 352 352 355 350 353 353 352 351 351 351 351 354 349 349 349 348 347 348 346 346 348 349 348 347 348 348 347 349 349 349 349 349 348 346 344 346 347 353
331 330 330 331 334 334 336 332 334 337 337 338 331 329 329 336 334 323 335 338 335 335 335 337 337 336 337 337 337 338 337 337 338 340 340 341 343 344 345 347 348 348 349 348 350 352 355 354 353 355 355 357 355 354 353 353 354 352 354 353 354 351 352 355 354 352 350 350 352 351 352 353 350 350 349 346 345 345 345 346 346 347 347 347 348 348 350 350 350 350 349 348 344 344 346 347 349
330 331 331 332 332 334 334 333 333 335 333 338 332 329 334 334 331 325 332 338 335 333 333 334 335 334 335 336 335 336 337 338 340 340 338 339 341 343 344 346 347 349 348 348 350 353 354 353 354 355 355 356 355 354 355 353 353 353 353 353 352 351 354 352 351 351 352 350 353 352 352 352 355 349 348 346 345 345 344 345 346 346 347 348 350 349 351 352 353 352 352 350 348 348 347 348 348
329 330 325 326 329 327 332 331 334 335 331 337 335 328 325 327 325 331 335 338 333 332 332 333 333 333 334 334 335 335 336 338 340 339 340 341 342 344 345 348 348 348 350 350 351 353 353 353 353 354 356 356 353 353 354 353 353 354 353 352 352 354 353 352 351 351 351 351 352 353 352 353 355 350 347 347 351 344 344 346 345 349 347 347 349 352 352 350 352 352 351 352 348 347 346 346 350
330 328 327 325 325 323 329 333 334 333 332 336 336 314 320 325 331 337 338 337 332 331 330 331 332 332 333 333 333 334 336 338 339 339 340 341 342 344 345 348 350 349 349 351 352 352 354 354 354 355 356 354 353 354 355 354 353 352 353 351 353 352 351 350 352 351 353 353 353 353 353 354 353 351 348 347 347 345 344 346 346 346 346 348 349 349 348 349 351 350 350 346 354 348 344 345 347
320 324 323 319 319 319 328 330 334 329 334 334 336 314 318 326 331 336 339 337 330 328 330 330 330 330 332 332 332 333 335 338 338 339 340 341 342 345 346 348 349 349 350 350 351 352 354 353 354 354 357 354 356 355 356 354 353 353 350 350 350 350 351 350 351 353 354 354 354 353 354 356 353 352 349 348 346 345 345 346 346 346 346 349 347 349 349 349 349 349 352 344 344 345 346 349 350
322 317 311 315 316 318 327 333 331 325 330 335 330 315 318 326 330 337 338 335 332 328 329 329 329 330 331 331 331 332 334 336 338 339 341 340 341 343 345 347 348 348 349 350 352 352 352 352 354 354 356 353 354 355 354 354 353 351 350 353 349 350 351 350 350 353 355 354 355 354 354 355 354 352 350 348 346 346 346 346 346 347 348 348 348 348 353 350 349 350 352 346 340 341 349 345 345
317 313 309 311 314 317 320 329 331 332 329 331 330 317 322 324 333 336 336 334 332 328 328 329 329 329 330 330 330 331 332 332 335 338 339 338 341 343 345 346 347 348 350 351 351 351 351 352 354 354 354 353 352 354 353 353 351 349 349 351 349 350 349 349 350 353 357 356 354 354 354 356 354 352 352 349 346 347 346 347 347 347 351 348 347 348 351 354 350 354 350 350 344 342 346 346 344
311 304 309 313 314 316 314 325 331 331 329 323 328 323 323 327 331 335 334 334 331 327 328 328 329 329 330 330 330 329 330 329 331 335 336 337 341 343 346 349 347 349 350 351 351 351 350 352 353 354 353 353 352 353 352 351 350 349 350 348 352 348 348 349 350 353 357 357 356 355 355 357 356 354 352 350 347 348 347 348 347 348 351 349 349 348 351 352 351 350 348 347 348 346 345 345 344
303 302 307 310 316 319 317 317 323 328 328 324 324 324 323 326 330 333 332 335 331 327 328 328 328 329 329 329 330 329 327 327 329 335 335 337 340 343 345 347 348 349 351 351 351 351 351 352 352 354 352 351 351 352 352 350 349 349 348 348 348 347 348 349 350 353 356 357 357 357 356 358 361 355 354 352 348 350 349 348 348 350 352 350 350 349 351 353 355 352 349 347 352 349 347 348 348
303 306 310 312 312 314 314 322 328 328 323 322 321 319 322 325 328 331 332 336 329 327 328 328 328 329 328 329 329 328 326 326 330 334 334 337 340 342 344 347 348 349 351 351 351 350 351 351 350 351 350 350 351 351 351 348 347 347 345 347 346 348 347 350 350 352 355 356 358 358 357 358 359 358 356 353 349 350 349 349 350 353 352 351 350 348 349 348 349 350 350 351 349 352 357 356 350
302 303 313 313 313 315 320 323 327 330 324 322 321 322 323 325 327 329 333 333 333 330 326 326 327 327 327 327 327 326 324 326 331 333 334 337 339 342 344 346 346 348 349 350 349 349 350 349 349 348 349 350 350 349 348 346 344 344 345 346 344 346 347 348 352 351 353 356 357 358 358 358 358 359 359 355 350 354 351 350 352 352 353 353 350 349 349 349 349 351 356 358 355 344 344 350 349
301 300 311 311 313 312 318 320 327 329 321 319 324 321 322 325 328 328 330 330 328 331 326 325 326 326 326 326 325 323 324 328 330 330 333 336 338 341 344 344 346 344 346 348 345 347 348 348 348 348 349 350 350 350 349 347 345 345 345 346 345 347 349 350 350 350 353 357 357 357 358 358 358 359 361 357 354 351 350 351 352 352 353 353 353 354 350 358 358 355 353 347 349 346 343 351 352
301 298 302 308 310 316 320 324 327 327 322 319 323 321 322 325 326 328 328 329 332 332 331 325 325 325 325 325 323 322 324 326 327 329 333 336 338 341 342 342 343 344 345 345 344 345 346 347 347 348 349 350 350 351 350 347 347 349 348 347 348 349 353 354 351 353 356 356 357 358 359 358 358 358 360 360 354 353 352 352 353 352 352 357 353 352 353 351 352 353 350 347 345 346 351 353 350
297 297 300 304 310 311 308 320 325 326 323 319 318 316 318 324 328 328 330 331 330 333 334 332 330 326 324 324 323 322 324 323 325 328 332 335 338 339 340 340 340 342 343 342 342 344 346 347 346 348 349 350 350 352 353 349 349 350 350 350 352 353 351 356 353 354 355 355 355 358 358 358 358 358 359 360 356 353 353 353 353 352 352 357 351 350 349 349 350 351 351 355 347 342 343 344 355
297 298 296 298 308 313 313 316 321 323 323 322 319 315 315 320 321 322 329 333 332 332 335 332 330 335 332 328 325 324 324 323 325 329 332 335 336 337 338 339 339 340 340 341 342 344 346 346 347 348 350 350 351 354 352 350 353 350 351 353 355 354 353 350 350 350 353 355 356 356 357 358 358 358 358 359 359 354 353 353 353 352 352 353 354 350 349 351 349 351 351 351 347 344 340 341 344
293 297 298 299 306 313 318 320 317 314 312 320 317 305 307 316 321 322 326 329 328 331 329 329 328 331 335 330 327 327 325 323 326 329 332 334 335 336 336 337 338 339 339 341 343 346 346 346 348 349 350 350 351 352 351 351 352 348 348 348 347 346 344 345 346 348 350 353 354 357 357 359 358 357 357 357 360 357 354 354 353 353 351 352 356 351 350 350 350 350 351 350 350 347 345 343 337
293 294 300 301 307 316 318 317 314 308 307 315 321 307 304 315 316 321 324 325 325 329 329 329 330 330 333 332 332 331 325 321 327 330 333 334 334 334 335 336 337 338 339 342 344 345 346 347 348 349 349 350 352 352 352 353 349 349 349 348 348 346 345 345 346 351 353 354 356 356 356 358 357 358 357 356 358 358 354 354 353 353 353 352 358 351 350 350 351 352 354 351 349 355 346 339 340
293 298 301 301 308 315 317 316 314 310 320 320 319 315 306 305 312 321 326 323 324 326 328 329 329 329 332 333 334 334 331 322 326 329 332 333 333 334 334 336 337 338 340 342 343 345 346 347 348 348 349 351 351 352 351 352 349 349 348 348 349 346 346 346 347 350 353 356 354 356 356 356 357 356 356 354 356 358 355 353 352 352 352 353 357 355 352 351 353 354 356 353 355 354 342 341 340
295 302 304 303 311 316 317 316 312 313 314 308 312 315 303 302 310 322 323 319 321 322 325 327 328 329 331 332 334 335 336 328 326 329 331 332 332 334 336 336 337 339 340 341 343 345 347 348 348 348 348 350 349 352 351 351 351 350 349 348 348 349 348 349 350 354 352 356 352 353 355 355 355 355 355 355 355 356 359 356 353 352 352 352 359 358 355 355 353 351 351 350 349 349 349 347 342
300 303 307 309 313 317 316 312 308 311 309 304 309 312 299 298 309 318 322 320 319 321 324 326 327 329 331 332 333 335 336 336 325 329 331 332 333 335 337 338 337 338 341 343 343 346 347 347 348 347 347 348 348 350 351 350 351 352 348 347 347 347 350 349 348 348 349 352 351 352 353 352 353 353 353 353 354 355 357 358 356 354 353 353 358 356 355 354 353 352 352 351 348 346 349 345 348
305 305 305 308 310 308 307 307 307 304 300 304 312 313 305 297 310 315 315 318 322 323 325 327 328 329 331 333 332 334 335 337 326 327 330 331 334 336 337 337 337 338 340 341 343 345 347 347 347 346 346 347 348 350 349 349 349 350 349 348 347 347 348 349 346 346 346 348 349 350 351 351 352 353 352 354 354 356 355 358 357 356 356 359 358 355 353 354 354 353 352 351 350 347 346 349 349
301 300 300 303 301 307 304 303 305 296 292 299 310 312 309 298 301 315 322 324 326 325 324 325 327 329 330 332 333 333 335 338 331 325 328 329 332 335 337 336 336 337 340 340 342 345 346 346 347 345 345 346 346 349 349 349 349 349 349 349 348 348 350 349 346 345 347 347 348 349 350 349 350 352 351 352 354 355 356 356 358 356 357 355 355 354 353 354 355 354 352 350 348 348 348 351 346
300 300 301 298 293 296 290 296 294 294 295 302 310 311 306 303 304 314 320 324 326 328 328 327 328 329 330 332 332 333 336 338 334 324 327 328 331 334 335 335 336 336 338 340 341 344 346 346 346 345 344 345 345 349 348 348 348 348 349 349 349 350 351 350 348 346 347 347 348 348 349 348 348 351 350 352 353 354 356 355 354 354 353 355 356 355 354 355 354 354 351 351 348 347 346 347 345
298 298 294 292 290 291 287 291 294 291 298 306 310 313 303 304 309 316 317 324 325 327 329 331 331 331 331 332 333 334 336 338 338 326 326 327 330 334 335 336 336 337 338 340 341 343 345 346 345 345 345 345 344 348 348 348 348 348 349 349 349 352 351 350 349 347 348 348 349 349 350 350 350 352 352 353 354 355 357 357 357 355 354 354 356 354 354 355 354 352 351 351 350 348 347 348 346
298 299 300 295 292 289 287 289 288 291 293 304 311 306 297 300 304 317 320 324 326 327 330 331 331 332 333 334 334 335 336 337 338 332 325 327 329 332 334 336 337 337 338 340 342 342 343 345 345 345 344 345 344 347 347 348 349 349 349 350 349 352 352 351 350 350 348 348 351 350 351 351 351 353 353 355 357 355 356 356 357 356 356 355 356 355 358 356 356 354 354 351 351 349 347 348 347
299 300 300 296 296 296 293 293 295 296 298 299 302 301 306 307 315 320 323 324 325 327 327 328 329 331 333 333 334 335 336 337 338 338 330 326 327 330 333 335 337 337 338 340 342 342 342 344 345 345 345 345 344 348 347 348 348 350 349 349 350 352 355 353 353 354 350 350 352 352 351 351 352 353 354 356 356 357 355 356 357 357 357 357 357 357 356 356 355 354 352 351 350 356 350 347 346
297 300 296 297 300 299 295 301 302 304 301 297 303 301 307 314 314 318 320 322 322 325 326 328 329 330 330 330 332 334 335 336 336 338 338 335 336 333 330 333 336 338 338 340 342 343 343 343 345 344 345 346 344 348 347 348 347 348 349 349 350 352 353 352 352 353 351 351 354 354 352 352 353 354 355 357 356 356 356 356 356 357 358 357 357 358 358 357 356 356 355 351 351 351 351 349 347
300 295 297 302 304 301 296 293 292 292 292 295 303 299 301 302 300 316 318 318 320 322 324 326 327 329 329 329 332 334 337 339 338 339 340 341 340 341 340 333 334 336 338 340 342 343 344 344 345 344 346 346 345 347 348 348 347 347 348 348 348 352 353 353 353 353 353 351 353 355 354 353 354 355 356 357 356 356 355 362 356 357 358 359 358 359 359 359 358 356 355 353 353 351 350 350 351
298 297 300 299 295 295 294 297 290 290 293 296 299 301 301 300 300 310 313 316 318 320 322 323 324 327 327 329 332 335 336 335 335 336 339 340 339 340 340 343 338 335 339 340 343 344 344 344 346 346 346 348 346 347 349 350 349 349 349 349 348 350 353 353 353 354 354 353 353 354 354 354 355 356 357 355 355 355 355 356 357 356 357 359 359 359 359 358 358 356 355 354 353 352 350 349 350
301 300 297 299 296 292 293 293 292 299 294 296 297 301 295 304 305 312 314 318 320 321 322 323 325 325 326 327 330 331 332 332 333 335 336 339 342 344 342 344 342 342 341 341 344 345 344 344 346 346 346 349 348 347 349 349 350 350 350 349 349 349 352 352 353 353 353 354 353 354 355 354 354 356 356 356 355 355 355 355 357 357 357 357 359 360 359 358 358 357 357 356 354 353 351 350 350
296 293 293 296 296 300 297 296 299 296 295 295 296 296 298 303 311 314 316 319 321 322 322 323 325 326 328 329 330 331 331 332 334 334 334 336 337 342 346 342 343 346 349 344 344 345 345 345 346 348 345 347 349 348 348 349 350 351 351 349 349 349 350 352 352 353 353 353 354 355 355 356 355 355 356 355 355 355 355 355 356 357 357 357 357 359 359 358 357 357 356 355 354 353 353 353 353
294 291 292 291 293 292 289 288 296 301 298 293 297 294 297 306 319 318 319 321 321 322 323 323 325 326 328 330 332 333 332 333 334 335 334 335 336 338 342 343 343 345 345 344 345 346 346 347 349 350 349 349 350 351 350 350 350 351 350 351 350 350 350 351 351 351 352 352 353 353 354 354 354 354 355 355 355 355 355 355 355 355 356 357 357 357 359 358 357 356 356 358 356 354 353 353 351
Wind_Speed
7 5 4 4 2 2 2 1 1 1 0 2 2 0 1 1 1 2 3 3 4 1 1 4 6 5 2 2 4 6 4 7 2 6 4 2 5 10 6 8 7 6 5 4 6 8 10 8 9 9 8 6 7 10 11 11 9 9 9 10 11 12 13 13 13 13 13 12 12 11 13 12 11 11 11 11 11 12 11 11 11 11 11 11 13 15 11 14 14 14 14 14 13 13 14 14 14
5 5 4 2 2 1 1 1 1 1 1 1 2 1 1 1 1 4 8 4 1 3 2 5 4 6 6 13 9 6 7 6 2 3 4 6 9 6 7 9 8 8 6 5 6 7 7 8 11 10 9 7 7 9 11 10 9 9 9 10 11 11 11 12 12 12 13 12 10 11 11 12 13 12 10 11 11 11 11 11 10 11 11 11 11 13 13 13 13 14 13 13 14 14 13 14 13
6 6 5 2 2 1 1 1 0 0 2 2 1 2 1 2 3 3 2 3 2 5 4 7 8 4 2 6 4 2 1 6 8 7 7 9 13 7 8 9 7 7 7 4 4 6 6 7 9 10 10 8 7 8 9 9 9 10 10 11 11 11 11 11 11 11 11 12 12 11 11 11 11 13 12 11 11 11 10 10 10 10 10 11 11 12 13 13 13 13 14 13 13 12 13 13 14
6 3 5 2 2 1 1 1 1 0 3 2 2 1 0 2 4 3 2 2 2 5 3 3 3 3 3 6 4 7 7 5 5 11 8 8 4 10 9 9 7 6 6 4 5 4 4 8 8 8 10 8 8 9 8 8 8 9 10 10 10 11 11 10 11 11 11 11 11 11 11 11 11 11 11 11 12 11 10 10 10 10 11 11 13 11 7 12 13 13 15 13 11 12 13 13 13
4 2 4 1 1 1 2 1 1 1 2 3 3 1 1 1 2 2 1 1 4 4 2 3 4 3 3 5 0 1 3 6 6 1 6 4 9 10 10 10 8 7 6 6 5 4 5 11 9 9 10 10 9 9 8 8 8 8 9 9 10 10 10 11 10 10 11 10 10 10 10 11 10 10 10 11 10 11 10 10 10 10 11 12 12 10 8 9 11 14 13 11 12 13 13 13 13
6 3 1 0 1 1 0 1 1 2 1 1 4 3 2 2 2 3 3 5 3 1 3 3 4 5 5 4 2 3 8 6 6 4 7 8 12 12 11 9 8 7 6 5 5 4 4 10 11 11 11 11 9 9 9 8 8 7 8 8 9 10 10 10 10 9 10 10 10 10 10 10 10 10 10 10 10 10 10 9 9 9 10 12 10 9 10 9 9 12 13 11 12 12 12 13 12
3 2 2 1 0 1 1 1 3 1 2 2 3 4 2 2 1 5 5 3 4 5 2 5 12 10 7 2 6 4 4 8 6 6 5 12 13 12 11 9 8 8 7 5 4 5 6 11 11 12 12 11 9 9 8 8 7 8 8 8 8 9 10 10 10 9 9 10 9 10 10 10 10 9 10 10 10 9 9 9 9 9 10 14 11 9 10 10 10 11 11 13 12 12 11 12 11
1 1 2 1 1 1 1 1 4 1 2 3 2 6 2 1 0 2 3 3 2 2 5 7 2 8 5 4 5 3 6 3 8 10 14 13 12 12 11 9 9 8 6 5 4 3 9 12 11 12 12 10 9 8 7 7 7 7 7 8 8 9 10 9 10 10 9 10 10 9 9 10 10 10 9 10 9 9 9 9 9 9 11 12 11 10 11 9 11 11 12 12 12 11 12 12 10
1 2 1 0 1 0 1 2 3 3 5 2 3 3 4 2 1 1 2 1 4 3 5 8 3 8 2 8 6 4 7 11 11 14 13 13 13 12 8 10 9 8 6 5 4 3 4 11 12 11 10 9 9 8 7 7 7 7 7 8 8 9 9 9 9 9 9 9 9 9 9 9 9 9 9 9 8 9 9 9 9 10 12 11 10 10 9 9 10 10 12 12 11 11 10 10 10
1 1 1 0 1 4 2 3 3 1 4 3 3 1 1 1 0 2 1 3 4 8 4 4 4 11 9 12 7 5 7 12 13 12 12 12 12 11 11 10 10 10 7 5 4 4 3 11 11 10 10 10 9 8 8 7 7 7 7 8 9 9 9 9 9 9 9 9 9 9 9 9 9 9 9 9 9 9 10 9 9 10 13 11 10 10 11 10 10 10 11 11 10 10 10 10 11
1 2 0 0 2 3 3 4 3 2 6 5 3 1 1 1 1 0 2 6 4 6 8 14 11 14 7 5 4 5 11 12 13 13 12 11 10 11 10 9 9 10 9 7 5 4 3 4 9 10 10 10 9 8 8 7 7 7 8 8 9 9 10 10 10 9 9 9 9 9 9 9 9 9 9 10 10 10 10 10 10 10 13 12 10 11 10 10 10 10 10 11 10 9 10 11 11
2 1 0 2 2 1 2 4 5 2 6 5 3 2 1 1 1 1 3 9 7 10 9 4 7 12 10 6 4 8 10 10 10 12 11 10 10 10 10 8 9 8 9 8 6 3 2 2 4 10 11 10 9 9 8 8 7 8 8 8 9 8 9 10 9 10 9 9 9 9 9 9 9 9 9 10 10 10 10 10 10 10 14 14 11 11 12 12 11 11 11 11 9 9 10 10 10
1 1 1 2 1 2 5 7 3 5 5 2 4 1 1 1 2 1 3 7 10 12 6 2 14 5 7 6 5 10 11 10 10 11 11 10 10 9 9 9 9 9 8 6 6 3 4 3 3 4 6 10 9 9 8 8 8 8 8 7 7 7 9 9 9 9 10 10 10 10 10 10 11 10 9 9 10 9 10 10 11 11 11 15 14 12 12 12 11 12 12 11 10 9 10 10 9
1 2 0 2 0 2 3 5 5 4 2 2 1 1 0 0 1 0 7 9 10 5 2 14 4 9 11 9 8 8 8 11 11 11 10 11 9 9 10 9 10 8 7 6 5 5 6 4 3 2 3 3 3 6 7 7 7 7 10 5 7 7 9 10 10 10 9 9 9 9 11 10 11 10 9 9 9 10 10 10 10 11 10 11 12 13 12 12 12 12 12 11 10 9 9 9 8
3 1 1 2 1 2 2 3 7 5 4 4 3 5 2 1 2 1 4 12 3 6 9 4 8 6 8 14 12 10 11 12 13 12 12 11 11 10 10 9 9 7 6 5 6 7 7 4 3 2 2 2 2 2 2 3 7 8 8 8 7 9 10 11 11 11 10 8 10 8 8 9 10 9 11 9 9 10 9 10 9 10 12 12 12 11 12 12 12 11 11 10 9 9 8 8 7
1 0 1 1 2 3 3 4 2 3 3 4 5 3 2 2 1 2 1 1 5 4 8 6 4 1 10 1 11 14 14 13 13 12 12 12 11 9 9 9 7 6 6 8 8 5 4 4 3 3 2 2 2 2 1 4 3 8 7 9 9 8 9 9 10 10 11 9 11 10 10 5 6 6 11 8 9 10 10 8 9 9 10 11 11 11 11 11 11 10 10 9 8 7 7 6 6
1 2 1 1 2 2 3 3 8 5 4 4 6 5 3 3 1 3 1 2 10 8 1 2 2 5 9 7 14 16 14 14 13 14 12 9 9 7 7 6 5 5 5 6 4 4 3 4 3 3 2 2 2 2 2 6 6 4 6 7 4 7 5 8 9 10 9 9 9 10 8 3 2 3 3 7 5 5 10 8 10 10 9 10 11 10 11 11 10 9 9 8 7 7 6 6 6
2 1 2 1 1 2 4 5 5 3 9 8 8 6 5 7 1 1 1 6 6 4 5 6 8 9 10 14 14 14 14 14 14 14 11 10 8 8 7 6 6 6 5 5 4 3 3 3 4 3 3 2 2 2 2 5 4 6 0 3 2 4 5 7 5 4 7 3 7 5 3 2 4 3 4 5 3 6 7 10 9 10 10 10 11 10 10 10 9 9 8 8 7 7 5 3 3
3 1 1 2 3 2 3 3 6 10 7 10 8 4 5 6 6 2 4 6 7 8 8 9 11 13 14 14 15 15 15 13 14 13 14 13 10 11 9 7 6 6 6 5 4 4 3 3 3 3 2 2 2 2 3 5 5 5 4 4 3 4 4 4 4 4 3 4 4 4 3 3 3 3 1 3 4 5 7 12 11 11 11 11 11 10 9 9 8 8 7 7 7 6 4 4 4
4 1 2 3 3 1 2 6 6 3 12 11 9 5 4 5 1 1 5 8 8 9 11 12 13 16 17 16 15 15 14 13 13 13 13 12 11 11 11 10 8 7 7 6 6 4 3 4 3 3 3 2 2 3 4 4 4 6 4 4 3 2 3 4 4 3 4 4 4 3 3 3 2 2 6 8 6 4 5 7 11 10 10 11 10 5 7 9 8 7 9 8 5 3 3 4 4
2 2 2 2 4 3 2 5 4 9 10 10 8 5 7 2 1 1 8 11 5 6 9 13 17 18 18 17 16 15 14 14 12 12 12 11 10 8 9 9 9 7 7 6 5 5 4 4 4 4 3 3 3 2 3 4 4 5 5 4 3 3 3 4 3 3 3 3 3 3 3 2 3 4 4 4 5 5 5 5 5 5 4 4 7 5 5 4 5 5 4 4 4 3 2 3 3
3 5 2 5 4 3 2 5 7 10 6 7 6 11 7 3 3 5 9 10 10 10 11 12 16 18 18 19 17 14 15 14 13 12 12 13 12 9 7 6 6 6 7 7 7 6 5 5 4 4 4 3 3 3 3 4 5 5 4 4 3 3 4 3 3 3 3 2 3 3 3 4 4 4 4 4 5 4 5 4 4 4 4 4 4 5 4 4 4 4 4 4 4 3 2 2 3
2 3 3 5 4 5 5 7 7 11 7 8 7 3 7 3 4 1 0 3 2 4 10 15 16 18 17 15 15 14 15 15 14 13 13 12 12 11 10 8 9 8 7 7 7 6 6 4 4 4 4 4 4 3 2 3 4 4 4 4 4 3 4 3 2 2 2 2 2 2 4 4 4 4 3 3 4 4 4 4 3 3 4 4 4 4 4 4 4 4 3 3 3 3 3 3 3
2 2 1 4 4 6 7 8 8 9 6 7 2 8 6 7 9 0 1 1 1 5 12 14 15 15 16 16 14 15 15 15 14 13 13 13 13 13 11 10 8 7 7 8 7 6 6 6 5 5 4 4 4 3 2 3 3 4 4 4 4 4 4 2 1 1 1 1 2 2 3 4 4 3 3 3 2 3 3 2 3 3 4 3 3 3 3 4 4 4 3 3 4 3 3 2 2
5 4 2 4 5 7 8 11 10 10 7 4 4 8 2 3 4 3 1 1 2 13 14 14 15 15 14 14 15 15 14 13 12 11 10 8 9 10 9 7 9 9 9 8 7 8 7 6 7 5 4 5 4 4 3 3 3 3 4 4 4 5 3 2 2 1 2 1 1 2 2 4 3 3 2 2 2 2 2 3 4 3 2 2 2 3 2 3 3 3 3 3 2 3 3 3 2
7 5 3 8 9 8 10 12 11 9 4 4 7 3 4 1 6 2 1 2 10 16 15 14 15 15 14 13 14 13 13 13 13 11 12 9 9 11 9 9 9 10 9 9 8 7 7 7 8 7 6 5 5 5 3 4 3 4 3 4 4 4 3 3 2 2 1 2 1 2 2 2 2 4 3 2 3 2 2 2 3 3 3 1 1 1 1 1 2 3 2 2 2 2 3 3 2
7 6 7 8 7 10 5 14 10 6 6 5 8 4 4 5 6 1 3 3 15 16 15 13 14 14 13 12 12 12 13 13 14 10 10 9 10 10 9 8 9 8 9 9 8 7 7 8 8 7 6 6 5 5 4 4 4 4 3 3 4 3 3 3 3 2 2 2 2 2 2 1 2 2 3 2 2 2 1 1 1 2 2 1 1 1 0 1 1 1 2 1 1 2 2 2 2
6 10 13 10 7 7 11 13 10 8 6 5 11 7 4 4 7 5 8 4 16 17 16 14 13 12 12 12 12 10 11 12 9 10 12 12 10 9 9 9 9 9 10 10 7 7 8 9 8 7 7 6 6 5 5 4 4 4 3 4 4 3 3 3 3 3 2 2 1 2 2 1 1 2 2 2 2 2 1 1 0 1 1 1 1 1 2 2 1 2 0 0 0 1 3 3 2
6 15 12 5 5 6 5 9 5 5 5 8 11 9 3 1 3 5 6 3 16 17 16 15 13 11 11 12 11 10 10 11 9 9 11 10 9 9 11 9 9 9 7 9 9 9 9 9 8 8 7 6 6 6 5 4 4 4 4 4 4 3 3 3 3 3 3 2 1 2 2 1 1 2 2 2 2 2 1 0 0 0 1 1 1 2 2 2 3 2 1 1 1 1 2 3 2
8 8 13 8 3 3 2 9 6 10 7 9 6 6 3 3 5 5 2 1 14 16 15 15 12 11 11 11 10 10 10 10 10 9 9 9 10 10 11 9 10 9 8 7 9 9 8 6 6 6 7 7 7 6 5 5 4 4 4 3 4 3 3 3 3 4 3 3 2 2 2 2 2 1 2 1 1 2 1 0 0 1 1 1 1 1 2 2 4 2 0 0 2 1 1 2 2
7 5 3 5 5 2 3 6 7 10 8 11 7 5 4 7 1 2 1 2 15 16 16 16 13 12 12 12 11 11 11 11 13 11 11 11 10 10 11 10 10 9 8 8 11 10 9 8 7 6 7 7 7 6 6 5 4 4 4 4 4 4 3 3 3 4 4 3 2 2 2 2 2 2 2 2 1 1 1 1 1 1 0 0 0 0 1 2 2 2 1 2 2 2 2 2 0
4 6 1 1 3 3 4 7 9 10 7 8 3 4 7 10 7 2 1 2 7 15 16 15 11 13 14 12 12 11 11 12 12 12 12 11 10 9 10 11 10 9 10 10 10 9 9 9 9 8 8 8 6 7 6 6 5 5 4 4 4 3 4 3 3 4 3 3 3 3 2 2 3 3 3 2 2 2 2 2 1 0 0 0 0 1 0 2 2 2 1 1 2 2 2 2 1
2 5 3 5 2 5 4 5 6 8 11 5 2 6 5 3 6 6 6 4 7 14 15 12 11 13 13 12 11 11 11 9 10 12 12 10 10 10 10 11 11 11 10 11 10 10 9 10 9 9 10 9 7 7 6 5 5 5 5 5 5 4 4 3 3 2 3 3 3 3 3 2 3 3 3 2 2 2 2 1 1 1 0 1 0 1 2 2 2 2 2 1 1 2 3 3 4
6 1 4 2 7 5 2 1 3 8 12 6 2 5 8 4 9 8 8 6 7 13 14 12 11 11 12 11 11 10 9 9 11 12 12 11 10 11 10 11 12 11 10 11 10 11 10 9 9 9 8 8 7 7 6 6 5 5 5 4 4 4 4 3 3 2 3 3 3 4 3 3 2 3 3 2 2 1 1 1 0 0 0 0 0 2 3 2 2 2 3 1 1 1 3 3 4
7 3 4 3 1 9 6 9 8 10 6 9 4 4 8 6 8 9 10 6 7 14 13 12 11 11 11 10 10 9 8 9 11 11 13 12 12 11 10 10 10 11 9 11 10 8 7 8 7 8 8 8 7 6 5 5 5 4 3 4 4 4 3 3 3 2 4 3 3 3 3 3 3 3 3 3 2 1 1 1 1 1 1 1 0 2 3 2 1 1 2 3 2 1 2 3 3
5 3 6 7 7 7 6 3 6 13 11 8 9 9 8 10 9 6 7 5 6 12 12 10 11 12 11 11 10 8 8 10 9 12 13 11 11 11 10 10 10 10 10 10 10 8 8 8 7 7 8 7 6 5 5 5 5 5 5 3 3 4 4 3 2 2 3 4 3 3 3 3 3 3 3 3 3 2 2 2 2 2 2 1 1 2 3 2 2 2 3 1 3 3 2 3 2
1 0 5 8 9 6 2 4 7 8 8 5 7 3 5 9 10 7 2 1 4 7 12 11 11 12 11 11 11 9 9 10 10 13 13 13 13 12 11 10 9 9 10 10 10 9 8 8 9 9 8 7 7 6 5 6 5 5 3 5 5 5 5 4 3 2 3 4 3 3 3 2 2 3 3 4 4 3 3 2 2 2 2 2 2 3 3 2 2 1 1 1 1 2 1 1 1
0 1 4 5 6 8 5 5 9 7 4 3 5 10 6 7 8 7 5 2 5 4 11 12 13 12 11 11 10 10 9 7 10 10 12 12 11 12 10 9 9 10 8 10 10 9 8 7 9 9 8 8 8 8 6 5 4 5 5 5 3 5 5 5 4 4 5 4 3 3 3 3 3 3 3 4 4 5 3 3 3 3 3 3 3 3 2 1 0 0 1 1 0 0 1 1 1
1 2 2 4 2 3 9 8 9 8 6 4 9 9 5 5 5 6 4 1 2 4 1 9 13 11 11 10 9 10 9 9 11 12 12 12 13 13 10 10 10 13 13 12 10 9 8 8 7 7 8 8 8 8 7 6 4 4 4 4 5 4 2 4 4 4 5 5 5 4 3 3 4 3 3 3 5 4 5 4 5 4 4 3 2 1 2 1 0 1 0 0 3 1 2 2 0
2 1 3 5 5 5 2 5 11 4 5 6 9 8 3 5 7 7 4 4 2 8 3 1 4 12 11 11 9 10 12 11 13 13 14 12 12 12 11 11 10 9 9 9 9 10 8 7 7 7 8 8 8 8 7 6 6 5 3 4 4 4 4 3 3 3 4 4 5 4 3 3 3 3 3 3 4 5 5 5 4 4 4 3 3 2 2 2 1 0 0 0 1 2 3 2 1
2 3 3 2 4 6 6 7 12 13 10 12 6 5 3 2 6 4 3 2 4 5 7 4 2 2 4 6 5 10 12 12 13 13 13 12 12 12 13 11 10 10 10 10 10 10 8 9 8 8 8 8 7 8 8 6 6 4 3 3 3 3 4 4 4 4 4 5 4 3 5 3 3 3 3 3 4 5 4 4 4 4 3 3 3 3 3 4 3 1 1 1 0 0 2 2 2
2 4 8 8 6 6 10 16 13 4 4 8 14 4 1 2 3 6 4 2 5 6 4 6 5 3 1 5 8 6 8 12 15 15 15 14 14 11 10 10 11 11 11 10 11 11 10 9 8 8 7 7 7 8 7 7 7 7 6 6 6 4 5 6 6 7 6 6 6 4 3 3 3 3 3 3 3 4 4 4 4 3 3 2 3 3 2 1 2 2 2 2 1 1 1 0 2
0 6 10 11 7 10 16 14 9 7 8 12 9 4 2 1 7 7 8 8 11 7 6 7 7 5 4 4 6 7 7 8 12 14 14 14 13 13 11 11 12 12 11 10 10 10 11 10 9 9 8 7 7 7 8 7 7 6 8 8 7 7 7 4 3 5 7 6 5 5 5 4 3 4 3 3 3 3 4 4 3 3 3 3 2 2 2 3 2 1 1 1 2 1 2 1 1
4 4 4 8 7 14 16 17 12 4 6 6 3 1 6 3 8 7 7 9 10 10 9 8 9 7 6 5 5 6 6 9 12 14 14 15 15 15 14 13 11 13 11 10 10 10 12 11 10 9 7 7 7 7 7 7 8 7 7 6 6 6 7 6 5 5 4 5 5 5 5 5 4 4 3 3 3 3 3 3 3 3 3 3 2 2 3 2 1 1 1 2 1 1 2 1 1
6 2 5 6 10 14 16 13 6 5 12 7 4 1 4 2 1 8 8 8 9 14 13 12 12 11 8 6 6 6 6 7 12 13 15 15 15 14 14 13 11 11 11 12 11 11 10 10 11 9 8 7 6 7 7 6 7 7 7 6 6 5 5 5 4 4 5 5 5 4 5 5 4 4 3 3 3 3 3 3 3 3 3 3 2 3 2 2 3 3 1 2 3 2 1 1 1
9 5 3 5 6 9 10 5 5 4 6 7 9 5 4 1 1 7 9 8 11 16 16 14 14 14 10 8 7 6 5 4 9 13 15 15 15 15 15 14 11 12 12 11 10 10 10 9 9 10 9 7 7 6 6 6 6 6 6 6 6 5 4 3 4 5 5 5 6 5 4 5 5 4 3 3 3 3 4 3 4 4 4 4 3 3 3 2 2 3 3 3 3 3 1 2 0
2 4 2 9 12 8 7 7 4 5 3 8 12 9 5 2 7 10 14 16 19 14 9 9 12 13 12 8 8 7 7 6 8 11 12 14 15 15 13 14 13 10 9 10 10 10 10 10 10 10 9 7 7 7 6 6 5 5 6 7 7 6 5 5 5 4 4 4 5 5 5 5 4 5 4 3 3 3 4 3 4 4 4 3 3 3 3 3 3 3 2 2 3 2 1 1 2
3 2 4 6 6 7 9 5 6 4 4 5 4 9 2 3 3 9 14 3 7 13 16 16 15 17 15 10 8 8 7 6 7 11 11 11 11 11 12 12 12 12 10 10 9 10 10 10 10 10 7 7 7 7 6 7 6 6 5 7 7 6 6 5 6 6 6 6 5 6 5 4 4 4 3 3 4 3 4 3 3 3 3 3 3 3 3 3 2 1 1 2 2 2 2 1 1
5 3 4 8 1 4 2 7 2 2 5 3 9 6 2 6 3 3 5 7 2 10 10 14 15 15 15 12 11 7 6 5 7 10 11 10 12 12 12 12 11 11 12 12 12 11 10 10 10 11 9 7 8 7 7 7 6 7 6 6 6 5 6 6 6 6 5 6 5 5 4 5 4 4 4 4 4 4 4 3 3 3 3 3 2 2 3 2 2 1 1 2 1 2 1 1 1
7 7 6 5 3 2 4 2 1 1 7 5 8 11 4 3 1 1 7 7 3 7 6 7 12 13 13 12 9 5 5 5 6 9 12 11 12 12 14 13 13 12 12 13 11 11 10 9 10 11 10 8 6 7 7 7 7 6 6 6 6 5 6 6 6 6 6 5 6 6 6 6 6 6 5 5 5 5 4 4 3 3 3 3 3 3 3 2 1 2 2 3 3 2 1 2 1
8 4 9 7 8 5 4 4 6 7 5 1 4 8 4 4 2 7 6 6 4 4 6 5 3 0 4 5 2 3 4 3 3 6 10 12 12 13 13 13 13 13 13 12 11 10 10 10 10 11 9 8 8 8 7 8 7 6 6 6 6 5 6 5 5 5 6 6 5 5 5 5 6 6 6 5 4 4 5 4 3 4 3 3 3 3 3 3 2 2 3 3 2 1 2 1 2
1 4 6 5 6 6 8 8 9 6 4 3 4 3 1 1 2 4 4 1 10 10 9 11 10 10 11 8 4 1 2 3 2 3 6 10 11 10 10 12 12 12 13 12 12 10 10 11 12 12 12 11 10 9 8 8 8 7 6 6 6 5 5 5 5 4 5 6 6 6 6 6 6 5 4 4 5 5 5 5 4 4 4 4 3 4 3 3 3 3 3 2 3 1 2 2 3
3 4 3 2 3 7 5 3 2 7 7 0 1 2 2 3 1 3 3 7 6 8 8 8 7 10 12 9 4 7 5 4 1 3 3 6 5 6 8 10 10 11 12 12 12 12 13 12 12 11 11 10 10 10 10 8 8 7 7 7 6 5 6 6 6 6 6 5 5 6 6 7 5 4 5 4 5 5 5 5 5 5 4 4 4 4 4 3 3 3 3 3 4 3 3 3 3
5 3 5 1 1 2 4 3 1 3 5 2 1 2 2 2 2 1 3 7 4 6 7 7 6 8 10 8 7 7 5 1 3 2 4 2 5 6 6 8 8 10 12 12 13 12 12 12 13 13 11 11 10 10 10 9 9 8 7 7 6 7 6 6 6 6 6 5 5 5 4 5 6 6 5 4 5 5 5 5 5 5 5 4 5 4 4 4 3 4 4 4 4 3 3 3 3
7 6 4 3 1 1 4 6 1 4 2 1 2 0 2 3 2 1 1 5 6 5 5 7 7 7 9 10 9 6 8 9 8 9 3 0 1 3 4 4 5 4 7 9 10 11 9 9 11 13 13 13 13 10 9 8 8 7 7 7 7 6 5 5 5 5 5 6 6 6 5 6 5 5 5 4 5 5 5 5 5 5 5 5 5 5 4 4 4 4 3 4 3 3 3 4 4
3 5 3 0 5 3 3 3 5 6 3 4 2 1 2 3 3 0 1 2 4 6 5 6 6 6 6 7 8 9 9 9 8 2 6 4 3 1 3 5 7 8 8 7 8 7 9 9 10 10 10 8 8 9 9 9 9 8 7 5 5 5 5 5 5 5 6 6 6 6 5 5 6 5 5 5 5 5 5 6 5 6 6 5 5 5 5 4 4 4 4 4 3 3 3 4 4
2 4 1 0 2 2 3 2 2 6 7 4 6 1 4 2 2 3 2 4 6 6 9 8 7 8 7 5 4 4 5 6 7 7 4 5 4 3 4 4 4 4 3 6 9 10 9 7 6 6 8 7 7 7 8 8 7 7 7 8 7 6 6 5 5 5 6 6 5 5 6 6 4 5 5 5 6 6 6 6 6 6 6 6 6 6 5 5 5 5 5 4 3 3 4 4 3
6 6 2 5 5 4 4 2 2 2 6 6 5 4 1 4 1 3 6 5 7 9 12 12 11 10 8 6 7 6 6 6 7 6 7 4 4 5 3 2 3 4 5 6 5 6 7 6 6 7 7 8 8 7 5 4 4 4 5 6 6 5 5 5 5 5 6 6 6 6 5 4 5 5 5 6 6 6 5 6 6 6 6 6 6 6 6 5 6 6 5 4 5 4 4 4 3
Wind_Direction
151 138 124 129 126 128 103 350 240 69 161 204 237 44 164 64 106 98 96 128 121 269 171 106 110 144 180 195 124 100 15 127 196 142 212 166 125 131 143 132 129 127 126 126 121 130 137 151 151 149 140 143 146 133 129 121 115 109 102 94 89 90 94 97 100 104 110 112 115 118 119 118 112 112 119 121 122 122 122 124 125 119 114 114 117 116 111 108 105 102 105 108 111 111 107 104 107
138 125 130 133 99 181 37 173 59 111 214 112 270 77 39 41 68 126 140 143 163 145 138 94 74 73 89 107 128 129 39 25 347 109 82 118 112 112 142 136 137 134 125 123 120 125 141 157 159 157 144 166 146 128 125 122 117 112 104 97 93 91 92 96 102 104 109 116 119 120 120 119 122 120 118 121 124 124 124 126 124 122 120 118 114 111 113 107 106 107 110 112 108 107 110 113 114
149 146 111 66 97 340 64 32 95 160 144 140 18 33 15 95 104 118 87 12 67 118 118 94 101 70 77 104 81 30 254 57 101 109 104 133 123 149 144 135 132 124 120 121 104 124 139 147 149 151 153 157 130 127 126 125 125 119 112 107 104 102 102 100 102 106 110 116 123 123 122 123 124 125 126 126 124 126 125 127 127 125 123 120 118 109 108 108 109 112 106 100 105 112 111 103 104
148 160 138 173 110 276 113 104 148 145 113 145 139 17 340 110 108 79 54 325 86 114 108 105 64 299 125 78 93 76 89 104 113 128 129 155 150 141 140 132 126 117 113 112 114 111 112 138 139 145 148 147 142 140 135 130 125 119 113 110 110 109 107 108 111 112 112 115 121 121 124 128 128 127 129 127 127 128 127 128 128 126 123 110 97 94 95 112 113 109 99 105 111 112 105 103 97
119 84 126 102 117 176 197 126 149 196 106 200 152 156 125 61 86 84 45 336 44 98 75 113 85 18 89 98 134 92 173 102 130 166 111 100 126 135 134 127 125 121 117 115 116 116 132 141 142 147 151 153 150 144 139 134 127 117 113 112 112 111 112 117 121 119 120 123 120 121 128 130 132 133 130 130 128 127 127 126 127 125 119 114 107 112 113 103 107 106 118 123 115 107 104 101 100
88 95 340 96 130 19 225 174 117 98 221 242 136 166 123 95 122 114 102 65 35 170 202 116 147 139 52 11 17 99 124 148 142 108 128 139 135 135 129 127 125 120 114 112 117 125 141 148 146 152 156 155 149 145 141 137 127 124 123 121 119 117 118 120 122 122 126 124 123 127 130 130 134 135 133 132 132 131 128 126 126 126 122 106 101 113 111 110 112 120 118 115 104 100 95 92 92
133 119 143 228 57 234 219 100 106 53 13 316 106 125 115 105 109 127 122 91 344 63 61 111 116 106 86 125 71 54 120 116 133 137 131 135 130 129 131 126 120 118 120 119 117 129 152 150 150 152 153 152 148 145 142 135 141 140 134 125 119 119 121 121 121 126 132 125 129 129 131 133 136 136 134 132 131 131 132 131 128 125 121 111 119 118 116 117 118 113 113 109 105 99 98 99 97
96 265 195 151 120 154 36 101 93 355 36 1 42 107 59 111 354 109 118 96 176 85 110 127 78 94 62 16 112 53 74 57 99 113 121 130 128 130 128 126 123 124 122 119 113 131 153 149 150 151 150 148 146 143 140 147 150 141 128 120 117 116 116 117 119 129 133 134 135 135 135 135 136 135 133 133 131 130 133 134 133 127 115 114 115 118 112 124 127 126 114 107 102 102 106 108 109
112 150 12 170 114 106 64 79 95 66 99 58 54 53 86 29 14 60 79 66 123 85 118 127 148 87 124 85 73 97 81 100 109 119 123 127 131 132 127 130 129 129 128 122 116 128 135 151 151 151 149 149 147 150 151 156 145 130 121 120 119 119 119 117 119 127 137 135 138 139 140 138 136 134 134 134 132 131 134 137 136 128 111 113 115 115 124 124 115 118 113 105 103 106 109 113 117
336 242 184 225 175 93 118 81 73 31 101 78 105 79 20 67 55 344 116 114 133 113 97 72 74 107 118 99 102 78 104 116 121 116 125 129 133 126 125 129 131 131 132 127 119 124 142 154 157 156 151 151 155 155 157 150 136 127 127 126 126 124 116 118 129 138 132 135 139 137 136 136 136 135 135 135 133 134 137 134 123 118 115 113 129 132 126 128 124 116 112 108 109 109 115 119 120
249 188 215 70 26 79 81 115 110 119 112 119 80 17 355 312 147 322 282 120 118 110 108 103 86 116 116 81 56 96 113 121 128 131 135 136 128 127 126 126 132 137 137 133 134 141 163 165 160 153 158 158 157 155 154 149 144 138 135 134 131 126 127 139 138 131 133 135 136 134 134 135 135 135 133 133 132 132 134 130 131 131 122 130 140 134 131 126 125 122 116 106 102 107 112 115 118
326 308 207 70 44 118 107 92 103 105 116 128 127 235 225 197 100 164 157 121 119 114 123 127 144 124 98 114 121 123 124 130 131 134 140 129 125 126 125 128 132 136 135 135 139 140 117 119 146 165 158 157 155 155 154 153 148 142 133 132 125 123 133 136 132 138 135 135 133 131 131 133 135 134 133 131 131 130 130 133 135 137 132 135 136 130 134 135 131 129 122 112 109 112 109 109 112
257 35 82 87 88 51 99 110 149 126 119 154 156 217 217 176 159 190 120 116 124 126 159 95 142 139 113 123 122 125 138 138 141 143 129 126 124 122 121 126 132 131 137 136 139 135 120 137 161 174 157 157 158 156 153 149 146 134 125 118 119 144 140 133 135 136 137 135 133 133 135 137 135 133 130 129 131 134 135 136 136 136 137 132 136 140 139 134 136 135 130 124 116 113 112 114 111
185 192 113 86 163 84 117 128 146 136 154 144 68 184 247 100 251 299 134 120 133 124 100 131 145 121 101 114 137 147 143 150 146 132 126 121 120 120 122 125 130 135 137 139 139 137 147 149 157 146 138 132 147 149 150 143 141 135 111 117 139 160 148 140 136 136 129 128 131 135 140 138 131 126 129 132 133 131 135 132 141 130 121 121 134 139 137 138 137 130 125 122 122 113 108 109 114
216 23 74 124 69 97 153 130 158 150 145 155 168 156 193 4 85 37 133 125 65 119 108 50 144 107 186 155 155 164 154 153 136 128 123 121 117 118 119 123 126 133 135 137 137 142 148 143 103 94 96 82 85 80 84 152 135 115 128 147 162 171 149 138 135 129 129 124 117 121 118 127 125 138 138 136 134 134 132 132 125 131 138 133 141 140 138 136 132 129 128 125 119 113 109 105 112
190 91 51 110 153 159 166 129 92 124 161 195 149 180 105 22 13 122 250 6 125 100 130 154 251 252 157 34 143 143 149 138 133 128 124 119 116 113 116 120 124 122 126 139 141 138 133 115 107 104 89 92 78 65 76 80 63 128 148 168 165 157 140 135 131 127 121 124 120 119 116 107 110 141 129 132 131 128 125 113 125 134 135 139 134 130 131 134 130 128 125 121 113 107 104 106 111
54 74 346 15 135 177 173 133 147 187 144 142 144 183 164 151 20 288 328 310 130 145 243 82 218 123 142 122 136 138 137 133 131 131 124 121 122 121 120 120 123 123 142 135 129 131 122 121 119 109 92 82 68 61 66 96 154 185 156 142 157 124 119 117 116 108 108 121 117 109 95 68 47 48 62 77 124 120 111 131 134 128 130 130 127 129 131 131 130 127 123 120 117 108 102 98 107
85 188 138 33 214 160 182 158 172 138 143 161 164 189 142 139 188 284 116 91 115 109 86 88 81 86 104 122 129 134 135 136 138 137 136 132 135 133 136 144 144 152 141 131 129 136 128 126 125 109 91 77 63 55 61 108 126 118 48 73 46 97 144 112 91 91 109 82 97 79 66 68 51 48 65 100 110 118 133 129 132 128 129 127 126 128 129 129 127 124 126 122 118 112 74 19 28
173 193 95 184 197 236 137 147 140 140 161 149 164 173 160 159 154 207 125 134 126 110 112 111 97 103 112 125 135 138 143 144 144 142 144 145 147 147 150 151 154 146 145 140 144 152 145 132 122 125 119 109 90 77 95 90 89 98 81 80 69 104 121 88 73 82 61 71 68 70 69 62 58 68 89 119 96 114 138 141 131 131 126 122 123 121 125 121 119 117 121 117 99 73 40 25 25
235 124 220 238 221 244 145 136 153 145 136 146 152 169 150 162 150 119 137 139 130 139 139 129 128 131 136 139 143 145 150 148 149 147 148 150 151 152 152 156 156 156 150 152 154 152 153 144 143 144 145 133 109 99 85 80 82 101 101 89 93 63 64 81 79 78 66 65 71 71 68 68 50 14 93 68 55 56 70 86 99 97 100 105 97 89 103 112 100 107 95 63 48 37 34 28 28
221 126 221 189 182 123 110 100 98 114 138 141 143 131 125 100 12 103 147 124 146 148 159 152 147 144 144 148 148 153 152 152 152 152 149 150 153 155 158 159 158 151 148 140 149 164 164 158 153 152 141 132 116 110 95 89 89 92 98 104 114 83 83 71 72 66 69 66 68 74 75 66 56 66 53 52 55 62 61 61 50 54 53 54 62 57 45 40 41 38 34 45 39 22 37 28 31
137 215 171 144 159 94 117 100 119 119 113 125 129 149 162 129 128 134 165 164 170 171 163 151 146 143 146 150 153 153 153 156 157 156 158 156 158 157 152 143 132 135 141 150 162 163 170 170 161 152 142 131 123 111 114 133 108 103 104 113 99 78 86 79 71 74 79 72 78 80 78 73 66 63 55 61 62 61 62 59 55 54 57 52 51 56 40 34 26 23 29 25 15 22 43 30 22
268 264 213 161 165 117 144 121 128 118 135 131 150 125 107 161 125 66 228 164 141 140 147 148 148 145 144 143 150 153 157 161 163 162 159 159 161 160 160 156 150 150 154 158 159 167 169 171 156 147 142 134 128 119 120 107 108 110 111 117 110 92 86 93 79 83 78 76 76 93 86 77 71 66 66 66 63 56 56 54 61 55 67 61 49 59 42 32 25 18 23 14 1 23 26 32 30
208 284 173 149 160 123 138 110 115 84 99 145 88 125 143 140 152 173 153 203 289 134 136 141 139 139 144 149 156 157 161 165 166 162 165 166 165 165 162 157 152 143 148 156 163 167 172 168 154 150 142 139 132 136 123 118 110 120 132 125 108 132 115 111 119 101 86 66 88 86 94 81 96 86 78 76 65 61 58 56 67 57 52 60 50 54 42 25 29 25 20 9 12 17 16 8 9
199 256 178 103 120 107 113 112 117 120 119 98 114 154 138 161 121 106 204 199 191 132 133 137 141 144 149 152 156 158 163 165 162 159 159 163 163 159 155 149 147 150 153 161 164 164 172 160 155 153 156 145 141 141 136 125 125 128 128 125 135 150 127 132 143 109 91 93 90 101 102 96 89 96 95 95 73 73 55 45 56 59 62 46 59 43 53 33 24 21 15 13 18 359 357 338 338
224 213 105 67 73 100 113 97 86 79 65 71 118 130 62 336 115 57 290 243 141 131 138 144 146 149 155 158 156 160 163 166 161 162 162 162 162 158 162 157 153 160 159 158 162 167 163 159 161 162 163 149 147 146 140 142 146 140 135 135 162 142 149 139 136 121 105 122 140 119 102 114 114 121 113 98 111 77 50 38 47 42 58 41 73 77 64 75 37 7 6 16 7 346 337 321 337
180 183 78 108 135 115 79 98 100 117 98 123 114 103 70 304 348 201 272 198 135 137 143 150 152 156 157 158 159 162 164 167 170 158 153 161 163 167 165 160 163 158 152 161 165 162 159 160 164 164 160 164 145 152 153 150 146 146 143 132 127 130 153 141 138 135 137 143 159 128 120 139 121 123 126 124 102 104 73 60 28 36 43 21 51 66 53 86 49 4 339 344 350 345 308 299 309
156 119 89 116 150 104 106 103 127 125 82 86 117 115 70 341 311 205 178 167 144 143 148 154 158 160 161 159 162 165 168 171 167 159 159 164 169 171 171 169 165 154 159 166 166 157 158 166 165 165 165 166 162 157 166 155 153 154 147 135 132 132 149 152 147 155 171 179 127 133 149 199 135 130 136 134 134 128 120 88 31 29 358 351 43 33 28 24 352 323 252 133 182 301 311 310 300
162 129 104 114 103 94 92 109 140 119 97 103 123 96 92 219 215 204 156 113 149 148 152 159 163 166 164 162 164 170 173 172 170 168 168 169 170 171 175 174 164 159 163 164 161 161 163 167 166 169 163 164 165 166 166 158 146 150 150 152 137 139 149 151 162 178 179 178 136 120 169 183 159 156 164 169 151 141 125 109 11 353 342 15 30 28 14 358 344 352 60 94 25 354 319 303 296
124 117 131 123 78 36 73 95 151 105 131 151 173 124 157 197 154 262 316 130 152 152 158 163 167 170 168 167 171 175 176 175 177 177 169 170 171 172 175 173 169 161 158 160 160 167 164 167 167 168 165 164 170 163 160 155 153 147 149 145 144 138 148 158 180 178 177 168 152 135 155 184 150 170 167 194 132 136 122 116 281 321 357 17 33 29 358 357 339 329 266 33 264 220 292 289 318
140 107 68 147 123 185 163 139 163 112 166 173 204 129 186 202 168 256 281 347 165 158 163 167 170 166 170 172 173 179 178 180 182 177 176 175 170 171 175 170 170 161 155 161 170 167 166 167 167 171 167 162 169 163 167 161 151 151 151 151 152 152 157 163 181 178 175 168 166 170 156 169 158 172 192 178 162 143 153 185 272 305 19 30 33 332 351 329 320 273 239 253 311 315 265 265 208
127 120 210 330 154 120 171 142 194 136 185 209 151 108 184 177 172 170 13 340 179 159 165 170 167 160 168 173 175 178 179 181 181 178 179 175 169 169 172 172 168 164 165 167 165 165 169 164 170 167 162 163 167 161 160 157 153 151 156 159 151 160 155 169 184 188 175 167 182 182 163 169 164 176 181 172 163 168 168 193 243 212 162 127 266 324 299 303 300 295 268 186 317 298 328 325 321
212 131 182 157 110 156 119 175 215 173 138 190 251 160 124 206 185 162 174 221 198 164 167 170 167 161 167 175 175 180 177 179 176 176 177 175 174 168 172 167 170 171 168 165 165 168 168 166 169 165 166 167 163 158 150 145 144 151 157 159 162 158 163 176 192 188 169 184 193 190 173 183 166 175 177 174 165 171 167 191 215 192 151 144 313 330 312 279 295 295 286 210 166 282 340 338 337
186 53 149 196 158 154 191 68 240 149 143 168 171 151 176 125 168 169 177 207 190 167 172 172 169 168 172 178 181 176 176 176 178 175 175 174 172 169 170 171 170 168 169 164 168 171 169 167 163 168 167 164 161 162 156 149 152 146 150 150 157 160 170 180 189 192 183 189 189 197 180 188 169 176 175 167 156 157 165 196 281 181 159 137 316 330 294 311 287 257 279 295 193 298 333 338 323
169 160 104 92 56 179 164 166 197 151 175 142 155 147 160 148 156 179 182 199 181 173 172 174 172 173 177 185 188 178 176 179 182 175 171 172 170 168 168 169 167 165 166 165 165 171 163 161 157 164 166 166 160 154 144 134 127 124 123 142 150 158 167 184 183 191 187 178 197 194 178 188 174 175 179 172 161 186 169 234 242 211 169 152 346 309 290 295 268 274 251 305 324 265 259 277 267
100 160 175 151 141 207 220 212 141 163 162 162 171 169 157 150 165 179 183 191 171 178 172 174 175 180 182 188 191 185 177 186 182 174 169 168 169 166 168 167 170 165 164 163 164 164 163 158 153 157 167 164 150 141 136 131 133 146 147 135 139 173 172 179 198 201 181 186 201 188 183 181 176 178 182 180 181 182 192 215 226 175 167 148 183 250 269 261 240 262 272 282 324 323 268 260 267
102 45 146 173 171 200 111 158 163 160 135 173 177 131 124 156 167 166 75 34 137 169 178 177 182 183 187 190 192 187 182 186 175 171 169 168 169 168 165 163 169 164 163 162 163 166 168 167 156 161 166 157 153 151 153 151 150 148 145 170 174 177 174 178 189 200 196 205 196 191 184 179 173 170 176 179 189 196 190 208 218 191 162 174 195 224 234 239 238 224 320 13 327 350 321 344 319
248 25 134 156 172 197 184 139 149 151 123 133 100 66 83 129 128 120 114 248 199 181 181 184 186 185 190 190 186 185 187 170 162 166 169 166 166 164 159 160 164 158 170 165 167 169 172 167 166 161 156 161 164 163 161 163 170 174 159 174 163 164 168 176 190 190 191 200 205 194 188 186 176 166 165 182 185 178 171 186 204 181 171 186 210 228 225 222 299 345 45 343 357 6 298 250 313
276 185 163 135 201 61 84 99 141 156 63 82 112 119 120 87 85 84 150 183 339 333 225 202 183 188 190 193 179 178 175 168 163 167 168 169 166 162 161 165 172 169 167 170 168 163 168 171 171 161 163 162 168 164 156 171 173 167 163 165 160 151 181 184 181 179 175 180 193 196 192 190 178 170 156 170 170 174 176 179 195 179 179 178 176 223 217 237 159 251 67 250 323 333 277 273 281
204 110 118 204 189 134 90 108 145 101 110 127 109 92 57 104 97 108 120 112 348 319 267 342 210 186 193 196 177 175 171 160 166 166 169 170 166 165 163 169 171 165 164 165 165 167 168 175 169 167 168 165 166 170 169 174 170 165 146 148 145 147 167 165 164 156 167 161 184 190 200 187 186 180 155 152 163 171 174 188 179 178 188 175 167 183 203 230 253 264 139 181 128 353 353 314 335
226 177 179 207 175 204 148 142 99 81 83 120 99 74 6 346 151 109 228 110 118 245 300 287 276 296 231 192 166 176 171 163 163 166 169 168 168 171 169 171 164 163 169 171 169 169 172 175 173 171 169 171 170 173 171 162 143 128 121 105 111 85 81 117 129 158 175 177 168 187 206 191 192 191 162 150 157 173 179 174 172 185 178 177 156 153 182 208 205 204 184 170 177 45 334 327 317
305 208 198 213 199 148 111 130 126 121 123 187 158 65 279 239 194 162 216 136 223 217 239 255 231 209 235 191 175 187 181 164 164 169 171 170 170 169 170 167 166 168 171 175 172 170 167 172 171 170 167 168 173 175 166 156 159 152 147 147 157 157 150 154 166 171 174 176 189 190 187 194 192 198 173 158 157 161 172 178 167 163 179 173 178 174 183 195 234 196 209 192 190 204 205 64 309
123 267 195 211 194 136 141 147 134 148 165 209 243 123 207 222 216 190 189 195 207 216 220 237 227 215 196 210 178 176 175 171 168 167 169 170 171 168 173 172 172 171 173 170 170 169 166 167 171 169 168 172 171 170 165 159 155 161 165 169 167 170 168 192 175 170 169 181 168 177 184 189 197 192 196 168 166 171 169 177 168 165 182 184 188 143 184 221 227 208 185 166 221 173 127 15 300
238 237 169 201 163 144 159 161 175 126 79 121 263 248 141 208 230 193 182 206 210 214 219 227 225 230 208 189 201 174 172 174 169 170 173 173 172 172 175 177 175 175 167 166 171 168 167 168 169 169 167 169 172 160 166 166 162 166 167 169 168 171 176 177 172 171 168 163 167 179 172 187 190 197 196 187 177 178 175 183 170 171 181 201 188 194 214 232 226 247 201 184 164 157 138 132 311
226 227 176 209 170 161 165 168 148 129 122 177 254 208 67 229 274 150 166 203 223 217 210 215 215 226 220 193 202 187 169 182 172 172 175 175 175 177 173 176 180 168 163 168 175 172 170 169 168 165 169 167 168 162 160 171 166 169 169 164 171 185 177 172 160 154 160 167 168 171 175 183 186 197 200 197 193 183 188 186 177 187 203 217 207 208 221 213 223 249 224 155 153 150 175 163 95
257 248 338 352 155 146 142 108 95 126 115 184 213 210 116 263 216 157 183 213 229 217 207 205 206 212 218 201 196 198 162 172 180 177 178 178 178 178 179 174 168 174 171 170 168 164 166 166 168 168 173 171 164 165 159 163 171 164 165 172 176 179 177 148 146 159 164 164 172 179 181 181 190 196 209 207 200 197 196 187 179 192 208 214 220 220 231 241 234 218 215 198 178 148 188 129 358
170 152 108 42 57 72 62 59 36 53 175 215 195 197 128 190 213 190 174 210 203 197 202 201 203 210 218 208 192 197 180 174 175 181 185 182 181 177 171 174 176 167 165 163 164 167 165 168 169 173 177 169 165 167 161 164 170 173 175 178 180 177 177 164 157 172 162 159 177 186 181 193 191 203 202 211 208 203 203 196 184 195 199 206 225 230 237 240 239 228 214 166 170 163 144 78 54
193 178 128 85 26 42 41 14 28 83 266 252 191 198 170 151 247 212 222 34 185 190 195 192 195 202 208 206 196 199 190 172 174 177 184 186 178 177 174 176 171 168 163 167 167 166 167 169 169 172 175 174 170 165 163 168 170 181 182 178 181 183 171 172 181 183 185 182 182 187 189 174 197 203 206 206 219 213 203 206 202 196 207 210 230 228 249 248 261 257 223 176 160 114 114 81 32
147 120 128 149 154 48 357 9 42 230 210 260 160 145 11 264 226 326 250 234 189 197 200 192 192 199 203 206 199 190 185 161 169 178 177 177 180 177 179 180 171 166 172 173 170 169 167 168 170 172 181 181 175 166 170 172 175 181 183 184 184 178 176 176 186 187 189 187 183 185 176 189 184 193 210 205 219 208 203 204 214 217 238 237 244 249 255 268 274 267 250 220 168 168 176 169 293
142 173 150 120 133 134 153 214 60 316 265 257 171 171 213 255 272 331 319 211 173 179 186 186 191 194 201 205 198 171 174 173 169 178 176 177 181 182 180 176 177 178 177 174 171 167 167 169 173 176 182 181 175 169 170 175 185 185 183 186 182 175 180 181 186 187 193 192 183 188 188 188 187 198 193 205 205 200 202 205 201 216 225 239 244 244 246 246 216 214 230 220 210 219 150 175 216
191 138 159 180 148 153 175 174 176 189 207 250 138 134 234 151 241 318 288 308 122 141 130 112 82 144 210 199 144 134 166 179 139 174 182 177 183 183 179 179 181 180 177 174 173 171 166 168 173 178 177 183 178 178 173 178 184 183 184 188 180 178 182 185 190 191 187 188 195 190 194 188 190 199 192 199 190 192 200 197 206 211 219 228 240 249 242 233 222 211 215 234 250 195 196 199 246
287 151 84 114 215 144 168 181 168 162 145 102 161 195 284 179 279 288 342 337 82 88 87 107 111 92 67 49 11 284 215 141 76 103 175 178 181 184 181 181 183 180 176 175 176 171 172 174 176 179 181 183 182 178 182 181 183 179 178 182 183 181 189 188 192 193 196 193 189 192 195 194 199 194 196 177 192 186 191 197 204 215 214 220 228 234 237 227 213 204 234 232 249 212 211 231 252
239 116 161 208 178 108 105 48 1 83 72 287 119 345 284 286 323 13 30 67 66 90 98 104 119 121 126 129 111 31 353 30 347 124 151 145 131 158 183 187 186 181 177 178 178 178 179 174 175 181 183 182 184 185 182 183 179 178 186 181 175 181 185 190 194 197 195 199 194 194 192 200 195 193 192 186 187 192 193 192 198 208 214 217 224 227 225 222 204 206 215 227 241 243 215 233 243
111 120 229 239 109 112 121 137 5 68 135 223 89 210 244 140 249 333 56 84 62 96 104 109 117 129 104 91 103 111 84 57 297 48 48 47 122 136 160 185 188 186 182 181 182 184 183 178 177 177 179 183 191 186 184 182 182 187 186 188 185 180 185 193 196 195 190 188 201 199 193 190 203 200 194 192 186 197 199 200 196 204 208 211 215 215 215 215 195 203 209 215 228 220 225 247 246
141 176 197 131 267 206 331 105 144 132 131 180 330 344 265 171 253 328 148 126 131 125 122 113 110 106 103 100 105 102 97 78 29 352 339 340 133 112 90 126 158 172 189 188 186 184 182 185 182 177 179 186 186 187 187 188 185 187 190 193 188 184 185 192 196 194 183 188 198 196 197 202 200 200 197 197 192 200 203 208 203 205 202 209 209 206 203 204 193 203 206 219 226 196 213 236 250
42 86 53 297 102 154 131 197 160 113 149 123 273 93 260 216 199 225 346 107 131 122 100 93 87 72 86 109 121 127 129 125 117 90 327 341 14 64 101 113 136 149 163 174 176 182 189 189 182 184 184 182 180 184 181 186 193 189 189 187 191 185 185 189 194 188 189 195 200 197 203 200 206 197 205 198 198 203 203 207 209 210 209 207 207 208 195 196 190 202 207 213 215 188 209 225 245
70 43 357 51 32 237 110 54 91 153 154 181 141 215 266 271 228 126 112 100 98 92 90 82 81 81 81 83 95 103 107 118 113 99 49 341 25 37 128 132 110 82 93 150 169 180 187 180 179 174 165 167 182 193 187 191 185 194 187 190 190 184 192 188 192 194 197 199 198 200 204 211 199 209 204 203 203 208 207 209 211 212 213 210 210 211 201 194 192 202 209 210 211 194 208 230 229
148 150 186 163 133 146 118 260 359 86 119 160 153 219 290 278 339 124 91 75 88 91 91 84 86 87 78 69 92 91 96 84 77 75 67 4 24 40 47 109 104 86 91 110 147 160 157 151 150 153 155 170 176 179 184 177 180 186 195 197 197 187 186 187 194 198 203 204 202 200 203 204 213 219 204 211 210 211 209 208 213 219 217 217 215 214 207 196 200 205 210 201 212 208 214 230 223